User: anonymous   Login
Location: Unspecified
(0.0000°N, 0.0000°E)
Time: 09:35:55
(UTC+00:00)
Language:

MERIDIAN 1 - Orbit

View from above orbital plane
View from above orbital plane
View from above satellite
View from above satellite

Ground track
Ground track

The orbit data is extracted from the following two-line orbital elements,

1 29668U 06061A   18018.62610503 +.00000020 +00000-0 +00000-0 0  9997
2 29668 064.6445 066.1820 7292535 237.1277 351.7786 02.00630448081101
Epoch (UTC): 18 January 2018 15:01:35
Eccentricity: 0.7292535
inclination: 64.6445°
perigee height: 811 km
apogee height: 39541 km
right ascension of ascending node: 66.1820°
argument of perigee: 237.1277°
revolutions per day: 2.00630448
mean anomaly at epoch: 351.7786°
orbit number at epoch: 8110

The dashed part of the orbit path shows where the satellite is in the earth's shadow,  

DLR